Theta_e
324 322 321 324 323 320 322 321 317 321 329 325 315 313 316 315 315 316 316 320 325 326 333 340 338 337 335 335 337 338 343 347 349 352 354 352 353 354 354 355 357 357 357 359 359 358 358 359 360 360 361 362 362 363 364 366 366 367 368 368 368 367 367
323 323 322 323 324 325 322 316 319 326 329 328 320 315 316 317 315 315 314 317 319 317 322 334 337 335 334 335 335 335 340 347 349 351 353 353 353 353 355 356 357 358 357 359 359 358 358 359 359 361 361 363 363 363 364 366 367 367 367 368 368 367 367
322 324 322 320 322 326 325 322 325 325 319 318 319 315 315 316 316 315 314 315 316 315 319 329 335 336 336 336 335 334 336 345 350 350 351 353 352 353 354 355 357 358 357 359 361 358 358 359 359 361 362 363 364 363 364 365 366 366 366 367 368 367 367
322 322 319 314 316 322 325 325 327 326 320 317 317 317 316 315 314 315 315 314 315 319 327 331 336 338 336 335 336 336 334 339 348 350 350 352 353 353 353 353 356 358 356 358 360 358 357 358 360 361 361 362 363 363 364 364 365 366 366 367 368 367 367
319 317 318 316 316 320 319 318 319 320 321 321 320 319 317 316 315 314 315 314 313 324 336 337 336 337 336 336 336 335 335 334 340 349 351 352 354 354 353 353 354 355 356 357 359 359 357 358 360 360 359 361 361 362 364 363 364 365 366 366 367 368 368
313 315 321 322 320 322 320 318 317 318 320 318 316 316 316 316 315 313 315 313 314 327 338 337 335 337 334 335 335 334 336 334 334 345 350 352 355 354 353 353 352 353 354 356 357 359 358 358 360 360 358 359 359 360 362 362 363 363 363 365 367 368 368
317 320 323 322 321 323 323 322 322 322 322 317 312 313 315 315 314 314 314 312 317 332 338 335 336 336 333 334 335 333 335 333 334 344 349 351 356 356 352 351 351 353 354 356 358 359 359 359 360 360 359 359 359 359 360 360 362 361 360 362 366 368 368
322 323 323 323 323 322 320 321 323 323 321 320 318 318 319 315 313 315 315 312 318 331 338 337 336 335 333 333 333 333 335 334 336 347 351 353 357 358 354 351 351 351 353 356 359 360 362 361 360 361 361 360 359 359 358 359 361 361 360 361 364 367 368
319 320 320 320 320 320 319 319 323 324 323 324 323 322 321 317 313 315 315 311 317 331 340 340 338 335 334 332 332 333 334 334 339 350 355 354 358 359 357 353 353 353 355 358 360 362 364 362 362 363 363 362 360 360 360 358 359 360 361 360 362 366 367
316 316 316 315 317 319 320 320 321 322 322 322 320 317 315 314 314 316 314 312 319 332 339 338 336 337 336 333 332 332 332 338 348 356 358 356 359 361 358 356 356 356 359 361 362 364 365 364 363 364 364 363 361 361 360 359 358 360 361 361 361 364 366
317 316 319 323 323 319 316 318 319 320 322 323 320 315 311 314 316 315 318 320 320 326 335 336 335 335 335 333 333 332 333 343 351 358 359 358 359 360 359 359 359 361 363 363 363 365 366 365 364 365 365 363 362 362 362 360 360 361 362 362 362 363 365
322 324 325 327 327 320 317 318 318 319 322 322 318 312 314 319 315 312 323 329 320 322 334 336 334 335 335 334 334 332 334 341 348 357 360 358 358 359 359 360 362 364 364 365 365 365 366 366 364 365 365 363 363 364 363 362 361 361 363 363 364 364 364
327 329 327 327 326 324 323 322 319 319 321 320 316 315 319 322 315 313 324 330 324 327 333 333 333 335 333 334 334 332 332 333 344 359 362 357 356 358 359 360 363 365 365 367 367 365 367 366 365 365 365 363 364 364 365 365 363 362 363 364 365 365 365
326 328 328 329 326 323 323 323 323 323 322 320 320 320 322 323 319 320 327 329 329 331 331 331 333 333 333 333 333 333 331 331 345 360 360 356 356 357 358 361 362 364 365 367 367 366 366 366 365 365 364 364 365 365 365 365 364 363 364 365 366 366 366
322 327 328 327 326 324 321 321 324 325 322 321 321 321 323 322 320 322 325 325 327 332 332 330 332 332 333 333 332 333 334 336 348 357 357 356 357 356 358 360 362 364 364 366 366 365 366 366 366 365 366 366 366 364 364 365 365 364 364 366 367 366 366
318 323 326 325 326 324 318 317 322 323 321 320 320 322 323 322 320 322 320 317 322 331 333 331 332 332 332 333 334 335 339 344 350 355 357 358 359 359 359 360 362 362 363 365 366 364 364 366 367 366 367 368 366 365 364 364 365 365 364 366 367 367 366
319 323 324 322 321 319 315 317 322 324 324 324 323 323 325 325 324 321 318 318 326 332 331 328 331 332 330 333 336 336 342 351 357 357 358 360 360 360 360 361 362 361 360 362 364 365 364 366 366 366 368 368 367 365 365 364 364 364 365 366 367 368 368
321 323 323 322 319 315 317 323 326 327 325 325 324 323 324 326 327 324 324 326 330 331 328 328 332 333 330 333 340 345 350 356 360 360 358 359 360 360 359 359 359 360 360 362 363 365 365 364 365 366 366 366 367 367 365 365 365 364 365 366 367 368 368
323 323 324 321 317 318 324 327 328 327 326 327 326 326 327 326 326 327 328 330 330 331 331 331 333 335 335 340 349 352 350 351 354 354 355 357 359 358 360 360 359 360 361 360 362 364 363 362 363 364 365 366 367 366 365 365 365 365 366 366 366 368 368
326 324 321 320 322 326 331 333 332 328 328 328 324 323 326 327 327 328 328 329 330 331 332 334 340 343 345 348 352 351 347 346 347 345 346 350 352 354 358 359 360 361 359 357 361 362 361 360 362 363 364 363 362 362 362 364 366 366 366 367 367 368 367
329 324 321 323 324 324 328 332 334 334 333 333 328 322 323 328 328 328 330 332 331 329 333 340 345 344 344 344 345 345 343 345 345 343 342 345 347 350 353 356 358 360 358 357 359 359 359 360 360 360 359 358 358 359 360 364 367 365 366 367 367 367 367
328 324 324 327 322 320 328 335 338 338 336 338 340 329 325 330 333 331 333 334 332 332 339 344 344 342 341 339 340 343 344 343 344 343 342 343 344 347 350 353 357 359 358 357 357 356 356 356 355 356 356 356 358 360 361 364 365 364 365 367 367 367 367
327 324 325 326 321 324 337 342 339 338 334 337 341 328 322 334 342 338 336 336 335 337 342 345 344 341 336 333 338 346 346 343 343 344 344 344 346 348 349 352 355 357 356 355 354 353 353 355 355 356 356 357 361 363 362 361 362 363 364 366 367 367 366
326 326 325 324 323 331 343 341 335 336 335 337 333 320 321 338 347 341 339 338 338 342 345 346 343 339 335 335 344 348 347 347 347 348 348 349 350 351 352 354 357 357 356 356 355 356 358 359 359 358 359 361 364 364 362 360 361 364 365 366 367 365 364
325 326 325 324 326 336 341 337 334 336 336 334 327 321 331 348 348 343 343 340 340 344 346 343 342 343 344 347 350 349 349 352 353 352 351 352 353 353 354 357 358 357 357 358 359 361 362 362 361 360 362 365 364 363 362 362 362 364 365 365 365 363 363
321 324 326 324 327 337 338 334 335 336 333 331 330 333 344 347 344 344 344 340 340 344 344 344 345 348 350 350 351 351 351 353 354 353 352 353 354 355 356 357 356 356 358 359 359 360 360 360 360 362 363 364 363 362 362 362 362 362 363 363 362 361 361
323 324 326 325 328 337 337 335 339 340 336 336 339 343 343 342 342 345 344 343 345 345 346 347 349 349 351 351 352 353 352 352 353 352 353 354 354 354 355 355 355 357 358 357 357 357 356 357 358 360 361 362 362 362 362 361 359 359 359 359 359 358 358
325 322 326 330 335 337 335 336 342 342 340 340 341 340 340 339 341 343 343 345 347 346 347 348 346 347 348 349 350 351 350 351 351 351 352 352 351 351 351 353 354 356 357 357 357 357 357 357 358 359 360 361 361 360 359 356 354 355 356 357 356 356 354
333 329 333 338 338 336 333 334 338 338 336 336 336 337 338 339 339 340 342 343 342 342 343 343 341 342 343 342 344 346 347 349 350 350 349 348 348 350 351 353 353 353 354 356 355 356 357 356 356 356 356 357 358 357 354 352 352 354 355 355 355 353 352
339 337 339 338 335 334 333 332 332 333 332 333 335 336 337 337 337 339 340 341 341 341 340 340 340 341 340 340 342 343 345 348 349 350 351 350 349 351 352 352 352 351 352 353 353 355 356 355 354 354 354 356 358 356 353 352 353 354 354 354 353 351 349
334 334 338 337 334 333 333 332 332 331 331 332 333 335 336 336 336 337 338 339 341 340 341 341 340 339 339 341 343 343 346 347 347 349 351 351 352 354 355 355 352 348 349 351 351 352 353 353 353 353 355 357 356 353 352 352 353 353 353 352 350 349 347
334 335 339 337 334 333 332 332 333 332 331 331 332 333 334 334 334 335 336 337 338 339 340 342 342 340 339 339 340 342 345 347 347 348 349 350 351 353 355 356 355 349 348 349 350 352 354 353 351 352 353 354 352 351 350 351 352 353 352 350 349 347 345
336 337 338 335 333 334 332 330 331 332 331 331 331 331 331 331 331 332 333 334 335 336 338 339 341 342 342 341 341 342 345 347 349 349 348 348 349 350 352 354 354 353 352 352 353 354 355 354 352 352 351 350 349 349 349 350 352 352 350 349 348 346 344
336 336 336 335 335 338 336 332 330 331 331 331 331 332 331 329 329 330 330 331 331 331 333 335 337 338 340 341 340 341 344 347 349 349 349 348 348 349 348 349 350 351 352 351 351 351 352 352 351 349 348 348 347 347 348 349 351 350 349 348 347 345 344
335 334 335 337 340 341 337 333 330 330 331 330 329 330 330 329 328 328 327 328 329 329 329 330 330 332 334 335 336 337 339 342 346 348 348 348 348 347 346 347 349 350 349 348 348 348 348 348 347 346 347 347 346 346 347 348 349 349 348 348 346 344 343
333 333 334 336 337 336 333 330 329 329 330 330 329 328 328 328 327 327 327 327 327 327 328 328 329 330 329 328 330 332 332 335 340 344 344 345 347 346 345 347 349 350 350 349 349 349 347 346 345 345 346 346 347 347 348 348 349 349 348 347 345 344 343
331 332 332 333 333 331 329 329 330 329 328 329 329 328 327 327 327 327 328 328 327 326 326 326 327 330 329 327 327 328 328 329 334 338 340 340 342 343 344 345 347 348 349 349 349 349 348 346 346 346 347 347 348 348 348 348 349 349 348 346 345 344 343
Wind_Speed
18 19 18 19 15 10 10 13 15 13 14 15 12 12 13 12 12 11 9 8 9 10 9 11 14 14 13 12 12 12 11 11 12 12 14 15 16 17 18 18 18 19 20 23 26 26 26 27 27 28 29 29 29 28 26 27 27 26 26 27 27 26 26
19 17 18 21 19 13 9 12 15 13 13 14 12 11 10 11 13 11 11 13 12 10 10 11 15 18 17 16 16 14 11 11 14 14 14 16 17 17 18 18 19 20 20 22 26 28 28 29 29 29 30 30 30 29 28 27 27 27 28 28 27 27 27
16 16 17 17 19 20 15 11 12 13 11 11 11 11 11 13 13 10 13 16 13 11 10 9 12 14 14 14 13 10 9 11 14 14 15 16 16 16 17 18 17 18 19 21 25 28 29 30 29 30 31 29 29 29 29 28 29 29 29 27 26 26 26
16 14 14 13 14 19 19 13 11 12 12 10 11 11 10 12 13 11 14 15 12 11 11 12 13 11 10 10 9 8 9 11 12 12 13 14 15 15 15 16 17 18 19 22 27 29 29 30 29 29 29 29 29 29 28 29 28 28 29 27 26 26 26
15 12 13 16 15 15 16 14 12 13 11 9 11 13 12 12 13 11 12 12 10 8 10 14 15 13 11 11 11 11 11 12 12 11 12 12 14 15 15 16 17 19 20 22 27 29 29 29 28 28 29 29 29 29 28 29 29 28 29 28 27 26 26
12 13 15 20 21 17 15 13 14 14 11 10 13 14 14 14 14 12 12 12 9 7 7 11 14 15 15 14 14 14 14 15 13 11 11 12 13 15 16 17 17 18 17 19 24 26 27 28 28 28 28 28 29 29 28 29 29 29 29 29 28 26 26
11 15 16 19 23 23 19 15 15 16 13 12 13 12 12 14 15 15 15 14 10 8 7 9 12 14 15 15 15 14 14 14 11 9 10 12 13 15 16 16 16 15 15 17 20 24 26 27 27 28 28 27 28 29 29 28 28 29 30 29 28 27 25
10 13 15 17 19 21 19 16 16 16 17 17 15 12 11 13 16 15 15 15 11 8 7 7 9 11 13 15 15 14 13 13 10 8 9 10 12 13 14 15 13 13 14 15 17 19 21 24 25 26 26 26 27 27 28 28 28 29 29 28 27 26 26
9 11 12 14 15 15 14 15 17 19 21 23 19 15 12 14 18 19 17 14 10 8 8 8 8 11 14 15 14 14 14 14 11 6 7 8 10 11 13 13 13 13 14 14 14 15 18 22 23 24 24 25 25 26 27 28 27 27 28 27 26 26 25
11 11 11 11 12 12 11 15 21 23 25 25 20 13 13 14 16 19 18 13 11 12 12 12 12 13 13 12 12 13 13 12 9 4 5 7 8 10 12 12 13 13 13 14 15 15 17 21 22 23 23 24 24 24 25 26 26 26 26 26 26 25 25
12 11 11 12 12 13 14 18 23 24 24 26 21 14 14 14 12 14 15 13 16 17 15 14 15 16 15 13 13 14 13 11 8 6 5 6 7 9 10 11 12 13 13 15 16 16 18 21 22 22 23 24 24 23 24 24 24 23 23 24 24 24 24
17 16 14 15 15 16 17 20 23 23 23 25 24 19 18 16 13 13 14 15 19 19 17 17 15 14 15 15 13 13 13 13 10 8 8 8 8 9 10 12 14 14 14 15 16 16 17 20 22 22 22 23 23 22 23 23 23 22 21 21 22 23 22
20 21 20 19 18 17 17 19 21 22 23 25 24 23 23 20 16 14 12 15 19 19 20 22 18 14 15 14 13 14 16 17 12 8 9 10 10 11 13 14 15 15 15 15 16 16 17 19 22 21 21 22 22 21 21 21 21 21 20 20 21 22 21
20 23 24 24 23 21 20 22 22 23 24 26 25 24 25 25 23 21 17 18 19 18 19 23 22 18 16 14 14 15 18 18 14 9 10 11 12 13 14 15 15 15 15 15 15 16 16 18 21 21 21 21 21 21 21 20 21 21 20 20 20 21 20
17 21 23 25 25 24 24 24 24 25 25 26 26 24 23 23 24 24 24 22 18 15 16 20 21 19 18 16 17 17 16 17 15 12 11 11 12 13 14 14 14 14 14 15 16 16 17 19 21 21 21 21 22 22 21 20 20 20 20 20 19 20 20
12 15 20 23 24 25 26 25 25 25 24 22 22 21 21 20 20 22 23 21 16 12 14 17 17 19 20 18 18 17 15 15 14 13 12 12 12 12 13 14 14 15 16 16 18 18 18 20 22 21 21 21 21 21 21 20 20 20 20 19 18 19 19
9 12 17 19 20 20 20 19 21 23 23 22 21 21 22 23 20 18 17 16 14 14 16 18 19 21 21 19 17 16 15 13 12 12 12 12 12 12 13 13 14 16 16 16 17 17 18 20 22 21 21 20 19 19 19 18 18 19 19 19 18 18 18
8 11 12 12 14 15 12 13 18 22 23 24 23 22 22 23 20 16 15 15 15 16 18 19 20 21 21 19 16 12 10 8 8 10 11 10 9 10 11 13 14 13 13 13 14 17 19 21 22 21 20 18 16 17 17 17 17 17 17 18 17 16 17
7 8 9 11 13 13 11 12 16 19 21 23 23 23 23 23 22 20 19 18 15 15 16 17 18 18 16 13 10 8 6 6 8 9 9 8 8 8 9 11 12 12 12 12 12 15 17 18 19 19 19 17 16 16 17 17 17 17 16 17 16 16 17
6 6 8 10 9 8 9 9 8 10 14 18 20 21 22 23 22 20 20 19 17 16 16 14 11 10 7 5 4 5 6 7 8 9 9 9 10 9 8 8 9 11 12 13 13 15 16 16 17 18 18 18 17 17 17 17 17 17 16 16 16 15 16
6 7 8 8 8 10 10 6 3 3 6 9 12 14 17 19 19 18 17 17 17 17 14 10 6 5 4 5 6 8 8 8 8 10 9 8 9 10 9 9 11 13 14 14 16 17 17 16 16 17 17 18 17 17 17 17 16 16 16 15 15 15 15
5 7 8 8 10 11 6 1 4 5 6 7 6 8 12 13 14 16 17 17 18 17 12 9 7 6 6 8 8 8 9 8 8 9 9 8 8 9 10 10 12 16 18 19 20 20 19 18 17 16 17 18 17 16 16 16 15 15 14 14 14 14 15
5 7 7 7 9 5 3 7 8 7 7 7 4 7 11 11 13 15 16 17 18 16 12 10 9 8 9 10 8 8 8 7 7 8 9 8 7 8 10 11 12 15 18 19 21 21 20 18 17 17 17 18 16 14 14 14 13 13 12 12 13 13 14
6 7 7 6 7 1 7 10 10 8 6 2 4 10 9 7 12 13 13 16 15 12 10 10 10 10 10 7 4 7 7 6 6 6 7 8 7 9 11 13 15 16 17 17 18 20 19 17 16 16 17 16 15 13 12 12 11 11 11 11 11 12 12
10 9 6 6 6 1 7 11 10 7 4 4 8 9 3 1 4 7 9 13 12 10 10 10 9 7 3 2 5 8 9 9 8 7 8 9 10 11 13 15 18 18 18 17 18 19 19 18 17 17 16 16 15 13 12 12 11 11 11 11 11 12 12
12 10 7 7 5 2 8 11 8 4 5 5 4 3 3 3 3 3 7 10 9 10 11 9 6 5 6 7 8 10 10 11 12 11 12 13 13 14 16 16 17 18 17 18 19 20 20 19 17 17 17 17 15 14 13 12 11 11 11 11 10 10 11
10 10 9 9 6 3 8 8 4 3 4 2 2 3 2 2 2 2 2 4 7 9 10 9 10 11 11 10 11 12 12 13 14 14 15 16 16 17 17 17 17 17 17 17 19 20 20 19 17 17 18 17 15 14 14 13 12 12 11 10 10 10 10
9 11 9 5 1 4 6 5 2 2 3 4 3 1 2 5 5 5 5 5 7 10 13 15 15 14 14 13 14 14 14 15 15 15 16 17 17 17 18 19 20 19 17 17 18 18 18 17 16 16 18 17 15 13 13 14 15 15 13 12 12 11 11
3 4 2 4 5 5 4 3 1 1 1 2 2 2 5 6 6 7 8 9 10 12 15 16 16 16 16 15 15 15 14 15 15 15 16 16 17 17 18 19 21 21 20 19 19 17 16 15 15 16 18 19 17 14 13 15 16 16 16 15 14 13 13
4 3 3 5 8 8 5 3 2 2 3 4 5 6 7 7 8 9 9 10 10 11 12 14 15 15 15 16 15 14 13 13 14 14 14 14 15 16 16 17 19 21 21 20 19 17 16 15 15 14 15 17 18 17 17 16 15 15 16 15 14 14 14
5 3 4 6 9 9 6 3 4 6 7 7 7 7 7 8 10 11 11 11 10 10 11 13 14 15 16 16 14 12 12 12 12 13 13 12 12 13 13 13 15 18 17 16 16 16 14 13 12 11 10 11 13 16 17 15 14 15 16 16 15 15 14
6 6 8 8 10 10 7 5 5 6 8 9 9 7 8 10 11 12 13 11 10 9 10 11 13 15 15 14 13 11 10 10 11 11 12 11 11 12 13 12 13 15 15 14 14 14 12 10 9 9 9 9 11 12 13 13 14 15 16 16 15 15 15
6 8 9 9 9 7 6 7 8 8 8 8 9 10 11 12 13 14 14 13 12 11 11 11 13 14 13 13 13 13 11 10 10 10 10 10 11 11 12 12 13 13 13 12 12 12 11 10 9 9 9 10 11 11 11 12 13 14 15 15 15 15 15
7 7 8 9 8 6 4 7 9 10 9 9 10 12 13 13 13 13 14 14 13 13 14 13 13 14 13 12 13 13 11 10 10 10 9 9 10 10 10 10 11 12 11 11 11 11 10 9 9 9 9 9 10 10 11 12 12 13 14 14 14 15 14
1 0 4 5 6 7 6 6 7 8 9 10 12 13 13 13 13 13 14 14 13 13 13 13 14 14 13 12 13 13 12 11 10 10 10 9 9 9 8 8 9 9 9 8 9 9 8 7 7 7 7 8 9 9 10 11 12 13 14 13 13 13 12
5 2 2 3 4 8 8 6 7 8 9 10 11 12 13 12 12 13 13 13 12 12 12 12 13 13 12 12 13 13 12 11 11 11 11 11 10 8 8 8 7 7 7 6 6 6 5 4 4 4 5 7 8 9 11 12 12 13 13 11 11 11 11
2 5 8 7 8 12 12 8 7 6 7 8 9 9 11 12 11 11 12 12 12 12 12 12 13 13 12 11 11 11 11 11 11 11 10 10 10 8 8 8 8 7 7 6 5 4 4 4 4 4 6 8 8 9 11 11 11 12 11 10 10 11 11
Wind_Direction
197 197 203 205 209 205 197 209 219 221 222 227 233 235 236 234 234 230 213 213 231 239 243 236 239 251 252 250 248 240 229 211 203 203 201 201 200 197 197 195 191 188 186 188 191 191 192 193 195 196 194 194 196 198 199 201 202 202 202 203 205 206 207
198 196 201 206 215 217 203 208 213 216 224 232 238 231 224 226 232 233 224 223 226 229 236 232 234 242 243 243 247 243 228 206 205 208 202 201 202 198 197 197 193 190 188 189 190 191 192 193 194 195 195 194 196 198 199 199 200 201 203 204 205 205 206
196 193 203 208 212 217 223 222 209 209 217 220 227 229 224 225 230 235 233 232 230 229 232 219 214 222 225 227 237 244 231 212 210 210 203 201 202 199 198 197 196 194 193 191 191 191 193 192 192 194 194 194 196 198 199 200 201 202 203 204 204 205 206
197 192 204 210 201 208 223 231 215 214 222 218 218 225 230 233 235 236 235 236 230 227 233 225 214 213 219 230 245 258 254 237 223 211 203 200 197 198 198 197 197 197 198 197 194 193 192 191 191 193 194 196 198 198 198 201 202 201 202 202 203 204 205
199 196 202 211 205 199 208 217 216 214 215 218 225 226 225 232 239 240 239 241 231 215 224 229 226 225 231 248 261 262 263 259 240 215 205 200 196 197 197 197 199 199 200 200 196 194 192 191 191 193 196 198 200 200 199 201 201 201 202 202 202 203 203
204 210 204 210 216 211 202 204 214 217 210 212 225 227 222 226 236 238 241 247 239 217 205 213 226 236 237 240 250 255 259 262 252 222 206 199 194 196 196 198 201 200 201 200 196 193 192 191 192 195 197 199 201 202 202 201 202 203 204 203 202 202 202
213 217 211 211 217 221 218 212 211 216 217 217 223 226 221 225 231 235 241 246 241 227 210 197 212 232 238 236 244 255 260 263 258 227 208 199 194 198 200 200 202 200 198 197 193 191 192 192 192 194 197 199 201 202 203 203 203 204 206 205 202 200 200
222 221 220 216 215 220 226 221 213 215 218 219 226 228 225 232 232 229 237 242 234 224 217 203 207 228 236 235 242 254 262 268 264 227 204 200 196 199 203 204 204 198 192 190 189 189 191 192 192 193 195 198 200 202 203 205 205 205 206 205 202 198 198
219 219 220 212 207 213 226 225 218 219 220 220 225 227 227 236 233 229 235 238 229 219 210 206 220 235 235 228 233 248 256 264 266 231 194 196 194 197 204 204 199 191 186 184 184 185 188 190 192 193 194 196 199 201 203 205 206 206 205 205 202 199 198
210 211 215 207 201 207 220 226 224 222 220 220 223 224 227 232 230 231 238 239 232 224 209 207 219 227 228 227 236 247 249 253 258 232 187 192 192 196 201 199 194 187 182 181 181 182 185 188 191 192 193 196 198 200 203 205 206 205 204 204 202 200 200
225 220 217 213 212 213 214 220 225 224 221 222 225 226 229 231 227 231 238 241 240 232 215 210 212 214 225 237 242 241 239 242 244 225 203 196 194 195 194 192 190 185 181 182 181 181 184 187 189 190 192 195 197 198 202 204 204 203 201 202 201 201 203
239 239 232 223 221 223 221 219 221 224 224 225 227 229 231 232 232 233 231 231 237 235 229 225 216 212 228 238 236 237 244 252 247 216 195 193 193 190 188 189 190 186 184 183 182 183 185 188 190 191 193 196 197 198 200 201 202 200 198 199 199 200 204
236 239 238 234 231 229 229 226 221 221 223 225 228 232 233 233 237 241 231 223 227 230 234 236 232 228 234 237 236 243 252 258 252 209 189 198 196 189 189 193 193 189 186 185 183 185 187 188 191 192 194 196 196 197 198 198 200 199 196 196 197 200 204
237 237 235 236 236 232 230 231 228 226 225 224 227 232 234 234 239 243 240 234 232 229 229 236 239 240 241 243 246 249 252 256 252 223 206 208 200 192 193 197 197 192 188 186 183 184 187 191 192 193 193 193 193 195 196 196 198 198 195 194 197 200 202
241 237 235 235 237 235 232 230 230 232 230 227 227 229 230 233 237 239 239 241 239 230 228 234 238 239 241 244 247 247 248 250 247 233 222 215 206 199 195 196 197 191 186 183 182 184 189 191 191 191 190 190 192 195 195 193 194 194 194 194 195 198 201
239 233 232 233 236 239 237 232 228 229 231 232 230 228 227 229 232 233 236 239 237 226 226 231 233 233 237 241 243 244 244 245 242 234 225 217 209 201 196 195 193 188 186 186 186 187 188 188 189 190 188 188 190 193 192 192 191 191 192 194 194 197 202
248 241 236 234 235 238 238 233 228 229 231 233 235 233 228 227 229 230 232 234 234 230 229 229 228 230 234 237 240 243 244 244 241 236 232 226 214 203 196 192 191 191 189 188 187 186 184 185 188 189 188 187 189 189 188 187 186 186 189 193 194 196 199
251 249 248 245 239 235 232 225 225 228 230 231 234 236 232 227 227 233 237 237 232 227 227 226 226 230 232 230 228 231 234 236 239 242 244 240 228 214 200 195 196 195 191 187 185 185 185 185 186 186 187 186 184 182 181 180 182 186 188 192 195 194 194
249 248 243 239 236 235 237 234 226 226 230 233 237 241 240 234 230 230 235 238 233 227 225 225 228 231 229 220 214 212 214 224 236 243 244 240 233 225 211 203 197 188 183 180 177 181 186 184 182 181 181 180 176 176 179 180 183 188 188 190 193 192 193
244 243 234 235 245 249 252 255 237 221 228 234 236 239 240 238 235 233 232 233 231 231 229 224 222 223 215 203 205 211 214 219 229 238 240 232 226 222 214 203 188 176 175 174 169 171 177 177 175 174 175 178 179 180 182 181 183 185 185 188 190 189 191
236 240 239 245 260 254 242 239 220 213 245 248 244 243 238 232 232 235 234 229 229 232 228 211 186 180 199 221 223 211 207 212 221 232 237 233 223 215 204 190 175 166 166 165 161 159 161 166 172 174 175 178 178 176 175 175 178 181 182 185 187 187 190
239 243 241 239 247 244 232 56 38 17 342 328 303 264 242 222 216 223 226 225 227 229 219 191 166 166 207 233 224 199 193 199 207 216 222 226 222 205 192 184 173 166 165 163 159 159 164 171 176 176 173 171 167 166 167 169 173 177 178 181 183 185 187
246 248 243 242 245 240 48 26 11 358 342 348 337 255 237 207 194 206 216 220 222 223 211 187 170 179 216 233 216 177 175 187 192 195 198 200 195 179 173 174 169 165 167 165 162 164 166 167 168 166 162 158 154 155 160 162 166 170 174 176 178 179 179
228 246 251 252 246 226 38 6 346 340 335 348 213 232 233 194 183 193 206 214 216 216 206 189 184 201 226 237 187 144 149 156 154 162 169 165 158 152 152 152 148 145 150 156 157 155 149 145 149 150 147 142 140 141 149 155 158 160 163 166 167 167 167
214 230 246 260 252 75 29 352 336 326 293 217 212 230 265 19 202 198 202 211 210 203 200 198 201 206 207 105 117 128 135 133 129 139 148 144 141 137 134 135 137 136 139 143 142 135 129 130 135 136 133 129 129 133 140 145 147 149 151 152 153 154 155
216 220 228 249 245 67 17 343 328 286 240 224 229 278 341 337 287 224 208 210 202 194 195 194 181 146 116 114 121 122 123 126 126 130 131 126 124 122 123 129 134 133 131 129 126 123 123 127 129 129 126 123 125 132 136 136 137 139 140 142 144 145 146
213 214 217 234 229 74 18 344 310 239 253 285 334 338 358 32 51 88 177 187 173 167 158 139 126 119 114 117 116 113 115 118 117 118 118 117 117 118 119 121 120 117 114 112 112 114 118 121 123 125 125 125 129 135 135 133 133 131 131 136 137 136 138
212 216 210 214 178 62 24 356 317 285 328 342 324 316 84 89 91 89 85 97 123 133 125 119 117 113 109 109 108 109 110 109 106 105 105 107 111 112 112 111 107 103 100 99 98 101 105 111 118 124 127 125 126 130 135 139 139 135 134 136 135 134 137
220 237 187 104 82 64 36 20 8 322 18 24 13 82 91 87 90 94 92 95 104 113 116 116 114 110 107 105 102 100 99 97 96 95 94 96 100 101 101 103 103 102 102 101 100 100 102 107 113 122 128 128 128 135 146 149 145 140 140 140 138 139 140
94 46 66 98 100 81 53 44 61 47 44 42 44 64 73 70 73 78 79 84 92 101 107 108 106 103 99 95 91 87 85 84 82 82 84 88 91 93 95 99 104 107 107 107 108 108 110 112 116 126 134 134 137 145 151 151 147 142 139 138 138 141 140
155 146 124 113 106 89 55 37 63 52 42 40 43 52 57 60 66 68 65 68 73 76 82 89 94 96 93 89 85 78 73 72 72 72 74 76 79 83 85 91 102 108 108 109 111 111 113 116 121 128 130 128 134 143 147 148 145 140 138 138 140 140 138
165 143 125 102 92 79 41 23 45 44 38 41 46 56 69 70 68 66 64 64 63 63 68 74 81 85 87 88 88 81 69 65 65 65 66 67 68 72 73 77 88 98 102 106 109 109 110 113 115 116 117 121 129 137 142 143 141 139 140 141 142 140 138
138 118 122 113 96 78 35 24 30 23 24 41 50 57 69 74 74 73 69 62 56 54 55 59 65 68 68 73 81 80 70 61 60 63 67 68 67 65 66 67 72 79 86 92 98 103 105 108 110 109 112 121 130 135 139 142 142 141 139 139 140 140 141
142 131 150 145 122 101 55 33 26 17 18 37 49 47 49 54 61 69 70 64 56 52 51 53 58 58 53 55 65 71 66 57 52 53 58 67 70 67 67 69 69 70 71 74 81 91 97 103 108 108 111 125 137 141 143 145 144 141 139 140 142 142 142
69 232 174 140 104 98 86 49 30 23 25 39 49 46 42 44 47 54 62 61 53 49 48 51 58 61 57 53 57 62 62 55 51 51 51 53 60 64 67 72 70 69 69 68 72 83 91 98 106 112 121 137 144 142 142 148 149 146 144 144 144 144 143
314 328 116 86 87 112 111 77 45 34 27 37 45 39 35 40 40 44 56 58 52 50 47 42 47 55 59 59 57 58 57 53 47 47 48 48 49 53 60 66 67 69 72 70 72 83 94 105 118 130 139 146 149 148 149 152 151 146 144 143 143 144 142
279 82 82 81 97 110 109 93 72 52 36 42 47 36 31 34 33 35 45 48 44 44 43 37 33 35 45 57 59 57 56 51 42 38 43 48 49 50 53 55 54 58 65 69 79 95 112 130 140 145 144 146 150 152 149 148 144 140 141 144 143 145 145